DW8219 Weather Reports


Display with metric or nautical units.
time (UTC)temp
F
wind
direction
speed
MPH
gust
MPH
rain 1hr
in
rain 24hr
in
rain mn
in
humidity
%
barometer
mb
20260506185406 63 186 3.0 10.0 0.01 0.05 0.05 84 1005.6
20260506184404 64 196 5.0 7.0 0.00 0.04 0.04 83 1005.5
20260506183904 64 239 5.0 9.0 0.00 0.04 0.04 82 1005.5
20260506183404 64 198 4.0 10.0 0.01 0.04 0.04 81 1005.5
20260506182905 65 250 4.0 8.0 0.01 0.04 0.04 81 1005.6
20260506182405 65 215 4.0 10.0 0.01 0.04 0.04 80 1005.7
20260506181904 64 201 5.0 13.0 0.02 0.04 0.04 80 1005.8
20260506181404 64 202 7.0 13.0 0.02 0.04 0.04 80 1005.9
20260506180404 65 228 7.0 15.0 0.02 0.04 0.04 80 1006.0
20260506175904 65 208 6.0 16.0 0.02 0.04 0.04 80 1006.1
20260506175404 65 214 3.0 12.0 0.02 0.04 0.04 82 1006.1
20260506174904 64 203 5.0 12.0 0.03 0.04 0.04 82 1006.1
20260506174404 64 213 3.0 8.0 0.03 0.04 0.04 82 1006.1
20260506173404 64 197 6.0 15.0 0.02 0.03 0.03 82 1006.0
20260506172904 64 201 6.0 12.0 0.03 0.03 0.03 82 1005.9
20260506172405 64 199 5.0 12.0 0.03 0.03 0.03 81 1005.8
20260506171905 64 190 5.0 15.0 0.02 0.02 0.02 81 1005.9
20260506171404 64 168 3.0 12.0 0.02 0.02 0.02 81 1006.1
20260506170904 64 200 3.0 12.0 0.02 0.02 0.02 80 1006.4
20260506170404 64 183 7.0 15.0 0.02 0.02 0.02 80 1006.7
20260506165905 64 197 4.0 12.0 0.02 0.02 0.02 80 1006.8
20260506165404 64 209 11.0 17.0 0.02 0.02 0.02 79 1006.9
20260506164905 64 216 9.0 14.0 0.01 0.01 0.01 78 1006.9
20260506164404 64 201 7.0 13.0 0.01 0.01 0.01 77 1006.8
20260506163904 65 209 9.0 15.0 0.01 0.01 0.01 76 1006.9
20260506162404 66 199 2.0 12.0 0.00 0.00 0.00 73 1007.1
20260506161905 66 211 9.0 16.0 0.00 0.00 0.00 71 1007.2
20260506161405 67 195 8.0 18.0 0.00 0.00 0.00 69 1007.3
20260506160904 67 209 11.0 20.0 0.00 0.00 0.00 66 1007.6
20260506160404 68 225 11.0 22.0 0.00 0.00 0.00 65 1007.6
20260506155904 68 204 13.0 23.0 0.00 0.00 0.00 65 1007.3
20260506155406 69 207 13.0 23.0 0.00 0.00 0.00 65 1007.3
20260506154904 69 194 10.0 18.0 0.00 0.00 0.00 65 1007.2
20260506154405 69 193 7.0 15.0 0.00 0.00 0.00 66 1007.2
20260506153905 69 209 9.0 17.0 0.00 0.00 0.00 67 1007.3
20260506152906 68 201 8.0 16.0 0.00 0.00 0.00 67 1007.3
20260506152404 69 217 9.0 20.0 0.00 0.00 0.00 64 1007.3
20260506150905 70 207 5.0 14.0 0.00 0.00 0.00 63 1007.7
20260506150405 70 209 10.0 17.0 0.00 0.00 0.00 62 1007.7
20260506145904 70 219 13.0 22.0 0.00 0.00 0.00 62 1007.5
20260506144904 70 193 9.0 29.0 0.00 0.00 0.00 63 1007.5
20260506144406 70 215 9.0 20.0 0.00 0.00 0.00 63 1007.7
20260506143905 70 234 10.0 17.0 0.00 0.00 0.00 63 1007.5
20260506143404 69 209 10.0 20.0 0.00 0.00 0.00 64 1007.4
20260506142904 69 213 11.0 18.0 0.00 0.00 0.00 65 1007.6
20260506142403 68 213 10.0 20.0 0.00 0.00 0.00 65 1007.6
20260506141905 68 229 13.0 24.0 0.00 0.00 0.00 64 1007.4
20260506141405 68 216 11.0 20.0 0.00 0.00 0.00 65 1007.4
20260506140904 69 216 12.0 20.0 0.00 0.00 0.00 64 1007.5
20260506140404 69 201 10.0 21.0 0.00 0.00 0.00 65 1007.6
20260506135904 68 203 12.0 20.0 0.00 0.00 0.00 65 1007.5
20260506135404 68 197 13.0 21.0 0.00 0.00 0.00 65 1007.7
20260506134905 68 222 10.0 18.0 0.00 0.00 0.00 65 1007.6
20260506134404 68 198 14.0 23.0 0.00 0.00 0.00 65 1007.7
20260506133905 68 191 13.0 20.0 0.00 0.00 0.00 65 1007.6
20260506132904 68 209 6.0 15.0 0.00 0.00 0.00 67 1007.6
20260506131904 67 215 9.0 20.0 0.00 0.00 0.00 67 1007.8
20260506131404 67 199 7.0 15.0 0.00 0.00 0.00 68 1007.7
20260506130404 67 200 10.0 15.0 0.00 0.00 0.00 68 1007.5
20260506125904 67 193 6.0 16.0 0.00 0.00 0.00 68 1007.4
20260506125404 67 225 8.0 17.0 0.00 0.00 0.00 68 1007.4
20260506124904 67 208 12.0 21.0 0.00 0.00 0.00 68 1007.5
20260506124405 67 213 9.0 16.0 0.00 0.00 0.00 68 1007.4
20260506123904 66 215 10.0 20.0 0.00 0.00 0.00 69 1007.4
20260506123404 66 218 12.0 16.0 0.00 0.00 0.00 69 1007.6
20260506122904 66 220 6.0 16.0 0.00 0.00 0.00 69 1007.6
20260506122405 66 199 10.0 21.0 0.00 0.00 0.00 69 1007.7
20260506121904 66 207 9.0 21.0 0.00 0.00 0.00 69 1007.5
20260506120904 66 194 8.0 15.0 0.00 0.00 0.00 69 1007.9
20260506120404 66 219 7.0 13.0 0.00 0.00 0.00 69 1007.9
20260506115904 66 206 8.0 15.0 0.00 0.00 0.00 70 1007.9
20260506115404 66 208 9.0 17.0 0.00 0.00 0.00 70 1008.0
20260506114905 66 198 11.0 18.0 0.00 0.00 0.00 70 1008.0
20260506113904 66 201 9.0 15.0 0.00 0.00 0.00 70 1007.9
20260506113404 66 210 9.0 15.0 0.00 0.00 0.00 71 1007.9
20260506111904 65 226 7.0 16.0 0.00 0.00 0.00 72 1007.9
20260506111405 65 219 8.0 14.0 0.00 0.00 0.00 72 1007.8
20260506110904 65 196 6.0 15.0 0.00 0.00 0.00 73 1007.8
20260506110405 64 200 7.0 16.0 0.00 0.00 0.00 74 1007.8
20260506105904 64 160 6.0 15.0 0.00 0.00 0.00 74 1007.7
20260506105405 64 194 8.0 17.0 0.00 0.00 0.00 74 1007.8
20260506104905 64 182 8.0 13.0 0.00 0.00 0.00 75 1007.8
20260506103905 64 214 5.0 12.0 0.00 0.00 0.00 75 1007.8
20260506102905 63 188 5.0 12.0 0.00 0.00 0.00 75 1007.8
20260506102404 63 191 4.0 12.0 0.00 0.00 0.00 76 1007.7
20260506101905 63 215 6.0 12.0 0.00 0.00 0.00 76 1007.6
20260506101405 63 186 5.0 10.0 0.00 0.00 0.00 76 1007.6
20260506100904 63 201 6.0 12.0 0.00 0.00 0.00 76 1007.6
20260506100406 63 176 5.0 12.0 0.00 0.00 0.00 76 1007.6
20260506095405 63 188 5.0 14.0 0.00 0.00 0.00 75 1007.6
20260506094905 63 163 6.0 14.0 0.00 0.00 0.00 76 1007.5
20260506094405 63 178 7.0 15.0 0.00 0.00 0.00 76 1007.5
20260506093905 63 173 7.0 13.0 0.00 0.00 0.00 76 1007.5
20260506093404 63 212 6.0 12.0 0.00 0.00 0.00 76 1007.5
20260506092905 63 177 5.0 12.0 0.00 0.00 0.00 76 1007.6
20260506092405 63 191 5.0 12.0 0.00 0.00 0.00 76 1007.6
20260506091904 63 185 7.0 13.0 0.00 0.00 0.00 76 1007.7
20260506091404 63 178 6.0 13.0 0.00 0.00 0.00 76 1007.6
20260506090905 63 182 5.0 12.0 0.00 0.00 0.00 76 1007.7
20260506085905 63 179 9.0 15.0 0.00 0.00 0.00 76 1007.7
20260506085405 63 168 6.0 12.0 0.00 0.00 0.00 76 1007.8
20260506084404 63 179 8.0 13.0 0.00 0.00 0.00 76 1007.8
20260506083905 63 180 5.0 13.0 0.00 0.00 0.00 76 1007.7
20260506083404 63 185 5.0 12.0 0.00 0.00 0.00 76 1007.7
20260506082904 63 179 4.0 13.0 0.00 0.00 0.00 75 1007.8
20260506081904 63 167 6.0 10.0 0.00 0.00 0.00 74 1007.8
20260506081404 63 160 5.0 9.0 0.00 0.00 0.00 74 1007.8
20260506080904 64 167 5.0 14.0 0.00 0.00 0.00 74 1007.9
20260506080404 64 168 8.0 12.0 0.00 0.00 0.00 73 1007.8
20260506073405 64 179 3.0 12.0 0.00 0.00 0.00 72 1007.8
20260506072904 64 158 3.0 9.0 0.00 0.00 0.00 71 1007.8
20260506071905 65 173 3.0 12.0 0.00 0.00 0.00 69 1007.9
20260506071404 66 175 7.0 14.0 0.00 0.00 0.00 69 1007.9
20260506070904 66 181 6.0 13.0 0.00 0.00 0.00 68 1007.9
20260506070405 66 218 9.0 17.0 0.00 0.00 0.00 68 1008.1
20260506062404 66 195 7.0 13.0 0.00 0.00 0.00 66 1008.1
20260506061904 66 213 6.0 12.0 0.00 0.00 0.00 66 1008.0
20260506061405 66 196 7.0 12.0 0.00 0.00 0.00 66 1008.0
20260506060904 66 207 6.0 12.0 0.00 0.00 0.00 65 1008.0
20260506060405 67 177 7.0 14.0 0.00 0.00 0.00 65 1007.9
20260506050905 68 188 9.0 20.0 0.00 0.00 0.00 62 1008.6
20260506050406 68 179 13.0 20.0 0.00 0.00 0.00 61 1008.5
20260506044905 68 207 9.0 14.0 0.00 0.00 0.00 61 1008.4
20260506044405 68 204 7.0 14.0 0.00 0.00 0.00 60 1008.4
20260506043904 68 218 9.0 17.0 0.00 0.00 0.00 60 1008.5
20260506042405 68 214 11.0 20.0 0.00 0.00 0.00 59 1008.5
20260506041904 69 193 9.0 15.0 0.00 0.00 0.00 58 1008.4
20260506041405 69 204 9.0 20.0 0.00 0.00 0.00 58 1008.4
20260506040905 69 198 4.0 21.0 0.00 0.00 0.00 57 1008.3
20260506040405 69 194 12.0 21.0 0.00 0.00 0.00 57 1008.3
20260506035905 69 188 8.0 21.0 0.00 0.00 0.00 57 1008.3
20260506035406 69 200 9.0 17.0 0.00 0.00 0.00 57 1008.4
20260506034905 69 200 10.0 16.0 0.00 0.00 0.00 56 1008.4
20260506033905 69 200 9.0 20.0 0.00 0.00 0.00 56 1008.4
20260506033404 69 211 9.0 24.0 0.00 0.00 0.00 55 1008.4
20260506032906 69 193 9.0 17.0 0.00 0.00 0.00 55 1008.4
20260506032405 69 208 10.0 20.0 0.00 0.00 0.00 55 1008.3
20260506031904 69 213 6.0 14.0 0.00 0.00 0.00 55 1008.3
20260506031405 69 191 8.0 20.0 0.00 0.00 0.00 56 1008.3
20260506030905 69 178 6.0 13.0 0.00 0.00 0.00 56 1008.3
20260506030405 69 176 4.0 12.0 0.00 0.00 0.00 56 1008.2
20260506025906 69 193 7.0 15.0 0.00 0.00 0.00 56 1008.2
20260506025405 69 179 7.0 14.0 0.00 0.00 0.00 56 1008.2
20260506024905 69 176 6.0 15.0 0.00 0.00 0.00 57 1008.3
20260506024406 69 188 6.0 14.0 0.00 0.00 0.00 57 1008.3
20260506023905 69 202 5.0 12.0 0.00 0.00 0.00 56 1008.3
20260506023404 70 169 6.0 13.0 0.00 0.00 0.00 56 1008.4
20260506022905 70 184 7.0 13.0 0.00 0.00 0.00 55 1008.3
20260506022403 70 184 6.0 15.0 0.00 0.00 0.00 55 1008.2
20260506021904 70 179 5.0 13.0 0.00 0.00 0.00 55 1008.3
20260506021404 70 177 7.0 18.0 0.00 0.00 0.00 55 1008.3
20260506020903 70 183 6.0 15.0 0.00 0.00 0.00 55 1008.3
20260506020404 70 182 10.0 16.0 0.00 0.00 0.00 54 1008.2
20260506015904 70 184 5.0 13.0 0.00 0.00 0.00 54 1008.2
20260506015404 71 176 9.0 15.0 0.00 0.00 0.00 53 1008.2
20260506014904 71 176 10.0 20.0 0.00 0.00 0.00 53 1008.1
20260506014404 71 171 10.0 20.0 0.00 0.00 0.00 52 1008.0
20260506013904 71 179 9.0 23.0 0.00 0.00 0.00 52 1008.0
20260506013404 71 179 14.0 24.0 0.00 0.00 0.00 52 1007.9
20260506012404 71 183 6.0 16.0 0.00 0.00 0.00 50 1007.8
20260506011903 72 176 6.0 14.0 0.00 0.00 0.00 48 1007.7
20260506011404 73 150 4.0 16.0 0.00 0.00 0.00 45 1007.7
20260506005904 76 185 7.0 17.0 0.00 0.00 0.00 39 1007.3
20260506005404 76 198 10.0 17.0 0.00 0.00 0.00 39 1007.2
20260506004904 76 186 11.0 18.0 0.00 0.00 0.00 39 1007.2
20260506004404 76 230 9.0 20.0 0.00 0.00 0.00 38 1007.1
20260506003904 76 198 10.0 20.0 0.00 0.00 0.00 38 1007.1
20260506003404 77 200 12.0 23.0 0.00 0.00 0.00 38 1007.0
20260506002904 77 208 9.0 20.0 0.00 0.00 0.00 37 1007.0
20260506002404 77 207 12.0 21.0 0.00 0.00 0.00 37 1007.1
20260506001904 77 191 7.0 17.0 0.00 0.00 0.00 35 1006.9
20260506001404 77 203 5.0 13.0 0.00 0.00 0.00 34 1006.9
20260506000904 77 232 6.0 14.0 0.00 0.00 0.00 34 1006.9
20260506000404 77 215 12.0 20.0 0.00 0.00 0.00 33 1006.8
20260505235904 78 208 9.0 18.0 0.00 0.00 0.00 33 1006.7
20260505235404 78 221 11.0 18.0 0.00 0.00 0.00 32 1006.7
20260505234404 78 210 10.0 20.0 0.00 0.00 0.00 32 1006.6
20260505233904 78 202 3.0 12.0 0.00 0.00 0.00 32 1006.6
20260505233405 78 210 9.0 14.0 0.00 0.00 0.00 31 1006.6
20260505232905 78 212 7.0 17.0 0.00 0.00 0.00 31 1006.5
20260505231904 79 212 8.0 18.0 0.00 0.00 0.00 30 1006.2
20260505231404 79 230 12.0 23.0 0.00 0.00 0.00 29 1006.3
20260505230904 79 228 10.0 22.0 0.00 0.00 0.00 29 1006.2
20260505230404 79 209 12.0 22.0 0.00 0.00 0.00 29 1006.2
20260505225905 79 233 15.0 23.0 0.00 0.00 0.00 28 1006.1
20260505225405 79 223 10.0 20.0 0.00 0.00 0.00 28 1006.0
20260505224904 80 238 12.0 26.0 0.00 0.00 0.00 29 1006.0
20260505224405 80 226 13.0 25.0 0.00 0.00 0.00 28 1005.8
20260505223904 80 212 10.0 23.0 0.00 0.00 0.00 28 1005.9
20260505223405 80 229 13.0 21.0 0.00 0.00 0.00 28 1005.8
20260505222905 80 229 10.0 26.0 0.00 0.00 0.00 28 1005.7
20260505222404 81 222 12.0 25.0 0.00 0.00 0.00 27 1005.7
20260505221904 80 217 16.0 33.0 0.00 0.00 0.00 28 1005.8
20260505220905 80 221 14.0 25.0 0.00 0.00 0.00 28 1005.8
20260505220405 80 223 13.0 23.0 0.00 0.00 0.00 28 1005.7
20260505215905 81 220 14.0 29.0 0.00 0.00 0.00 28 1005.5
20260505215405 81 236 13.0 24.0 0.00 0.00 0.00 28 1005.5
20260505214904 81 216 14.0 28.0 0.00 0.00 0.00 28 1005.4
20260505214404 81 205 10.0 21.0 0.00 0.00 0.00 29 1005.2
20260505213905 81 207 12.0 25.0 0.00 0.00 0.00 28 1005.5
20260505213405 82 228 16.0 30.0 0.00 0.00 0.00 28 1005.5
20260505212905 82 200 15.0 26.0 0.00 0.00 0.00 29 1005.3
20260505212404 83 203 13.0 25.0 0.00 0.00 0.00 28 1005.3
20260505211905 82 212 15.0 26.0 0.00 0.00 0.00 29 1005.3
20260505211405 82 194 18.0 28.0 0.00 0.00 0.00 29 1005.4
20260505205404 83 232 12.0 22.0 0.00 0.00 0.00 28 1005.3
20260505203904 83 216 12.0 21.0 0.00 0.00 0.00 28 1005.3
20260505202403 83 217 13.0 26.0 0.00 0.00 0.00 30 1005.5
20260505201904 83 212 20.0 37.0 0.00 0.00 0.00 28 1005.5
20260505201404 83 213 16.0 30.0 0.00 0.00 0.00 29 1005.4
20260505200903 83 216 10.0 18.0 0.00 0.00 0.00 30 1005.5
20260505200404 84 197 14.0 21.0 0.00 0.00 0.00 29 1005.5
20260505195904 83 228 11.0 24.0 0.00 0.00 0.00 29 1005.7
20260505195403 83 222 13.0 26.0 0.00 0.00 0.00 29 1005.8
20260505194904 83 197 17.0 26.0 0.00 0.00 0.00 28 1005.8
20260505194404 83 230 17.0 26.0 0.00 0.00 0.00 28 1005.7
20260505193904 83 209 17.0 35.0 0.00 0.00 0.00 30 1005.7
20260505193404 83 196 14.0 26.0 0.00 0.00 0.00 30 1006.0
20260505192904 83 200 15.0 26.0 0.00 0.00 0.00 31 1006.0
20260505191905 83 217 10.0 23.0 0.00 0.00 0.00 32 1006.2
20260505191403 83 220 15.0 23.0 0.00 0.00 0.00 31 1006.3
20260505190904 83 194 15.0 26.0 0.00 0.00 0.00 30 1006.2
20260505190405 84 215 10.0 20.0 0.00 0.00 0.00 32 1006.4
20260505185904 83 197 9.0 25.0 0.00 0.00 0.00 35 1006.7